ITASAT 1

Last updated on Fri Nov 10 2023 00:03:00 GMT+0000 (Coordinated Universal Time)

1 43786U 18099AE 23313.09733788 .00007312 00000+0 57315-3 0 9998 2 43786 97.5517 11.7167 0019617 15.3557 344.8259 15.01115522269372

Satellite not in orbit

ITASAT 1